Location: Vanderbilt Beach
(26.2700°N, 81.7900°W)
Time: 15:00:43
(UTC-05:00)

BlueWalker 3 - Visible Passes

Search period start: 30 November 2023 00:00
Search period end: 10 December 2023 00:00
Orbit: 489 x 504 km, 53.2° (Epoch: 29 November)

Date Brightness Start Highest point End Pass type
(mag) Time Alt. Az. Time Alt. Az. Time Alt. Az.
04 Dec 3.7 06:13:31 10° NNW 06:16:49 27° NE 06:20:05 10° ESE visible
05 Dec 3.7 05:51:02 11° NNW 05:54:08 27° NE 05:57:23 10° ESE visible
06 Dec 3.7 05:29:41 19° N 05:31:27 26° NE 05:34:40 10° ESE visible
07 Dec 3.6 05:08:23 25° NE 05:08:44 26° NE 05:11:57 10° ESE visible
08 Dec 4.2 04:47:09 22° ENE 04:47:09 22° ENE 04:49:12 10° ESE visible
08 Dec 3.4 06:21:44 12° WNW 06:24:12 21° SW 06:27:07 10° S visible
08 Dec 4.9 19:58:53 10° SSW 19:59:09 12° SSW 19:59:09 12° SSW visible
09 Dec 5.1 04:25:56 13° E 04:25:56 13° E 04:26:26 10° ESE visible
09 Dec 3.3 06:00:32 20° WSW 06:01:28 21° WSW 06:04:24 10° S visible
09 Dec 3.7 19:36:09 10° SSW 19:38:01 27° SSW 19:38:01 27° SSW visible
